Fairbanks Eiels, AK

6:39 AM AKDT on April 23, 2017 (GMT -0800)
Eielson Air Force Base

Weather History for PAEI - March, 2014

Change the Weather History Date:

Sunday, March 23, 2014

  Actual Average Record
Temperature  
Mean Temperature 18 °F -  
Max Temperature 41 °F 25 °F 53 °F (1998)
Min Temperature -4 °F 3 °F -30 °F (1967)
Degree Days  
Heating Degree Days 47    
Moisture  
Dew Point 1 °F    
Average Humidity 51    
Maximum Humidity 78    
Minimum Humidity 24    
Precipitation  
Precipitation 0.00 in - - ()
Sea Level Pressure  
Sea Level Pressure 30.58 in    
Wind  
Wind Speed 3 mph (NE)    
Max Wind Speed 13 mph    
Max Gust Speed -    
Visibility 10 miles    
Events      
Averages and records for this station are not official NWS values.
T = Trace of Precipitation, MM = Missing Value Source: NWS Daily Summary

Daily Weather History Graph

Daily Weather History Graph

Search for Another Location

Airport or City:

Trip Planner

Search our weather history database for the weather conditions in past years. The results will help you decide how hot, cold, wet, or windy it might be!

Date:

Astronomy

Mar. 23, 2014 Rise Set
Actual Time 7:37 AM AKDT 8:14 PM AKDT
Civil Twilight 6:48 AM AKDT 9:03 PM AKDT
Nautical Twilight 5:47 AM AKDT 10:04 PM AKDT
Astronomical Twilight 4:35 AM AKDT 11:17 PM AKDT
Moon 4:34 AM AKDT 10:33 AM AKDT
Length of Visible Light 14h 15m
Length of Day
12h 36m
Waning Gibbous, 53% of the Moon is Illuminated
Mar 23
Waning Gibbous
Mar 23
Last Quarter
Mar 30
New
Apr 7
First Quarter
Apr 14
Full

Hourly Weather History & Observations

Time (AKDT) Temp. Windchill Dew Point Humidity Pressure Visibility Wind Dir Wind Speed Gust Speed Precip Events Conditions
12:58 AM 7.3 °F - -1.7 °F 67% 30.64 in 10.0 mi NNE 2.3 mph - N/A   Clear
1:58 AM 8.2 °F 1.6 °F -2.2 °F 63% 30.63 in 10.0 mi Variable 3.5 mph - N/A   Clear
2:58 AM 6.6 °F - -2.9 °F 65% 30.63 in 10.0 mi Variable 2.3 mph - N/A   Clear
3:58 AM 6.8 °F -6.9 °F -3.8 °F 62% 30.62 in 10.0 mi North 9.2 mph - N/A   Clear
4:58 AM 2.5 °F -8.6 °F -6.7 °F 66% 30.62 in 10.0 mi North 5.8 mph - N/A   Clear
5:58 AM 1.4 °F - -4.5 °F 76% 30.63 in 10.0 mi Variable 2.3 mph - N/A   Clear
6:58 AM -2.6 °F - -8.0 °F 78% 30.63 in 10.0 mi Calm Calm - N/A   Clear
7:58 AM -4.4 °F - -10.8 °F 74% 30.63 in 10.0 mi Calm Calm - N/A   Clear
8:58 AM -1.7 °F - -8.5 °F 73% 30.62 in 10.0 mi Calm Calm - N/A   Clear
9:58 AM 5.4 °F - -3.8 °F 66% 30.63 in 10.0 mi Calm Calm - N/A   Clear
10:58 AM 10.4 °F - -0.6 °F 61% 30.62 in 10.0 mi NNE 1.2 mph - N/A   Clear
11:58 AM 16.7 °F - 0.7 °F 49% 30.61 in 10.0 mi Calm Calm - N/A   Clear
12:58 PM 25.5 °F - 3.0 °F 38% 30.60 in 10.0 mi Calm Calm - N/A   Clear
1:58 PM 31.5 °F 26.8 °F 6.4 °F 35% 30.57 in 10.0 mi North 4.6 mph - N/A   Clear
2:58 PM 37.9 °F 35.5 °F 3.7 °F 24% 30.55 in 10.0 mi North 3.5 mph - N/A   Clear
3:58 PM 38.5 °F 34.1 °F 7.0 °F 27% 30.53 in 10.0 mi North 5.8 mph - N/A   Clear
4:58 PM 40.1 °F - 9.3 °F 28% 30.51 in 10.0 mi Calm Calm - N/A   Clear
5:58 PM 38.5 °F 31.6 °F 10.6 °F 32% 30.50 in 10.0 mi SSE 10.4 mph - N/A   Clear
6:58 PM 36.1 °F 29.9 °F 11.1 °F 36% 30.50 in 10.0 mi SSE 8.1 mph - N/A   Clear
7:58 PM 32.0 °F 27.5 °F 5.7 °F 33% 30.51 in 10.0 mi SE 4.6 mph - N/A   Clear
8:58 PM 27.0 °F 20.5 °F 5.4 °F 40% 30.51 in 10.0 mi South 5.8 mph - N/A   Clear
10:58 PM 32.0 °F 22.5 °F 5.0 °F 32% 30.50 in 10.0 mi ESE 12.7 mph - N/A   Clear
11:58 PM 21.6 °F - 4.1 °F 47% 30.51 in 10.0 mi Calm Calm - N/A   Clear